This demonstration page uses our WeatherBlox Daily Observations layout. Learn more.

Left ArrowRight Arrow

31.31129, -92.44514

Hourly Observations for December 11, 2021

Temp ( °F °C ) Dew Point ( °F °C ) Humidity (%) Winds ( mph kmh ) Pressure ( in mb ) Visibility ( mi km ) Precip ( " mm )
12:16 am 00:16 Mostly Cloudy 76 24.4 69 20.6 79 79 S 16 26 29.82 1010 10 16 0.00 0.00
12:53 am 00:53 Partly Cloudy 76 24.4 69 20.6 79 79 SSW 18 30 29.82 1010 10 16 0.00 0.00
1:33 am 01:33 Mostly Cloudy 75 23.9 69 20.6 82 82 SSW 16 26 29.80 1009 10 16 0.00 0.00
1:53 am 01:53 Cloudy 75 23.9 69 20.6 82 82 SSW 15 24 29.81 1009 10 16 0.00 0.00
2:53 am 02:53 Cloudy 76 24.4 68 20 77 77 SSW 16 26 29.83 1010 10 16 0.00 0.00
3:53 am 03:53 Cloudy 75 23.9 68 20 79 79 SSW 14 22 29.83 1010 10 16 0.00 0.00
4:12 am 04:12 Cloudy 75 23.9 68 20 79 79 S 14 22 29.81 1009 10 16 0.00 0.00
4:25 am 04:25 Cloudy 75 23.9 68 20 79 79 SSW 10 17 29.83 1010 10 16 0.00 0.00
4:53 am 04:53 Cloudy 75 23.9 68 20 79 79 SW 10 17 29.85 1011 10 16 0.00 0.00
5:33 am 05:33 Cloudy with Light Rain 65 18.3 59 15 81 81 NW 22 35 29.89 1012 7 11 0.01 0.25
5:46 am 05:46 Cloudy with Heavy Rain 64 17.8 60 15.6 87 87 NW 16 26 29.91 1013 4 6 0.06 1.52
5:53 am 05:53 Cloudy with Heavy Rain 63 17.2 59 15 87 87 NW 15 24 29.92 1013 3 4 0.12 3.05
6:12 am 06:12 Cloudy with Heavy Rain 62 16.7 60 15.6 93 93 NW 5 7 29.91 1013 4 6 0.07 1.78
6:53 am 06:53 Cloudy with Light Rain 63 17.2 60 15.6 90 90 WNW 7 11 29.94 1014 10 16 0.11 2.79
7:53 am 07:53 Mostly Cloudy 64 17.8 60 15.6 87 87 NW 8 13 29.98 1015 10 16 0.00 0.00
8:53 am 08:53 Cloudy 62 16.7 55 12.8 78 78 NW 17 28 30.03 1017 10 16 0.02 0.51
9:53 am 09:53 Cloudy with Light Rain 58 14.4 49 9.4 72 72 NNW 12 19 30.09 1019 10 16 0.00 0.00
10:53 am 10:53 Cloudy 56 13.3 43 6.1 62 62 NNW 16 26 30.11 1020 10 16 0.00 0.00
11:53 am 11:53 Cloudy 56 13.3 41 5 57 57 NNW 13 20 30.13 1020 10 16 0.00 0.00
12:53 pm 12:53 Cloudy 57 13.9 40 4.4 53 53 NNW 13 20 30.12 1020 10 16 0.00 0.00
1:53 pm 13:53 Mostly Cloudy 57 13.9 38 3.3 49 49 N 12 19 30.11 1020 10 16 0.00 0.00
2:53 pm 14:53 Mostly Cloudy 57 13.9 37 2.8 47 47 NNW 10 17 30.14 1021 10 16 0.00 0.00
3:53 pm 15:53 Cloudy 56 13.3 37 2.8 49 49 NNW 13 20 30.15 1021 10 16 0.00 0.00
4:53 pm 16:53 Cloudy 54 12.2 37 2.8 53 53 NNW 8 13 30.18 1022 10 16 0.00 0.00
5:53 pm 17:53 Cloudy 53 11.7 35 1.7 51 51 NNW 14 22 30.20 1023 10 16 0.00 0.00
6:53 pm 18:53 Cloudy 51 10.6 36 2.2 56 56 N 10 17 30.22 1023 10 16 0.00 0.00
7:53 pm 19:53 Partly Cloudy 50 10 35 1.7 57 57 N 9 15 30.24 1024 10 16 0.00 0.00
8:53 pm 20:53 Clear 49 9.4 34 1.1 56 56 N 8 13 30.26 1025 10 16 0.00 0.00
9:53 pm 21:53 Clear 48 8.9 34 1.1 58 58 NNE 9 15 30.27 1025 10 16 0.00 0.00
10:53 pm 22:53 Clear 47 8.3 34 1.1 61 61 NNE 7 11 30.27 1025 10 16 0.00 0.00
11:53 pm 23:53 Clear 46 7.8 34 1.1 63 63 N 7 11 30.27 1025 10 16 0.00 0.00

Powered by AerisWeather